Location: Caltech
(34.1382°N, 118.1253°W)
Time: 10:17:25
(UTC-08:00)

Cosmos 44 Rocket - Visible Passes

Search period start: 07 December 2016 00:00
Search period end: 17 December 2016 00:00
Orbit: 645 x 745 km, 65.1° (Epoch: 06 December)

Date Brightness Start Highest point End Pass type
(mag) Time Alt. Az. Time Alt. Az. Time Alt. Az.
07 Dec 4.6 04:09:02 28° SSE 04:10:58 39° ESE 04:15:45 10° NE visible
07 Dec 4.5 05:48:25 10° WSW 05:52:36 24° NW 05:56:45 10° N visible
08 Dec 6.4 03:13:50 12° E 03:13:50 12° E 03:14:31 10° ENE visible
08 Dec 3.4 04:52:42 58° WNW 04:52:46 58° WNW 04:57:50 10° NNE visible
09 Dec 5.5 03:56:26 21° NE 03:56:26 21° NE 03:58:12 10° NE visible
09 Dec 4.8 05:35:15 19° NW 05:35:15 19° NW 05:38:39 10° N visible
10 Dec 5.2 04:38:28 19° N 04:38:28 19° N 04:40:00 10° NNE visible
11 Dec 5.6 05:20:10 11° NNW 05:20:10 11° NNW 05:20:22 10° NNW visible
